Volver al catálogo

SKYTERRA 1

ActivoComunicacionesGEO
NORAD 37218·PAYLOAD·🇺🇸 United States

Lanzado Nov 14, 2010 desde Baikonur Cosmodrome

Loading…

TLE

ActualizadoSource: CelesTrak SupGP

Época: Sep 14, 2026, 06:00 UTC

1 37218C 10061A   26257.25000000 -.00000023  00000+0  00000+0 0  2579
2 37218   5.3125  50.6488 0000767 128.4945 162.8077  1.00272100    18

Sigue SKYTERRA 1 en tiempo real con AllMySat

Download on the App Store